• In Belarus
  • List of Countries
  • For 7 days
  • Water Temperature
  • Satellite Maps
  • Weather Map
  • Weather Widgets
  • user-avatar
    Login

    Hourly Weather Snyatyn

    Today, 19 June, Tuesday

    Time Temperature Precipitation Wind Pressure Humidity
    00:00 +22°C° 0 mm 1 mps 741 mmHg 96%
    01:00 +21°C° 0 mm 1 mps 741 mmHg 97%
    02:00 +16°C° 0 mm 0 mps 742 mmHg 95%
    03:00 +19°C° 0 mm 1 mps 742 mmHg 93%
    04:00 +18°C° 0 mm 1 mps 742 mmHg 95%
    05:00 +18°C° 0 mm 1 mps 743 mmHg 96%
    06:00 +18°C° 0 mm 1 mps 743 mmHg 97%
    07:00 +20°C° 0 mm 1 mps 743 mmHg 95%
    08:00 +20°C° 0 mm 2 mps 743 mmHg 95%
    09:00 +23°C° 0 mm 2 mps 744 mmHg 92%
    10:00 +24°C° 0 mm 2 mps 744 mmHg 90%
    11:00 +25°C° 0 mm 2 mps 744 mmHg 87%
    12:00 +26°C° 0 mm 2 mps 744 mmHg 83%
    13:00 +27°C° 0 mm 1 mps 744 mmHg 80%
    14:00 +28°C° 0 mm 1 mps 744 mmHg 74%
    15:00 +28°C° 0 mm 1 mps 744 mmHg 74%
    16:00 +28°C° 0 mm 1 mps 743 mmHg 73%
    17:00 +28°C° 0 mm 1 mps 743 mmHg 72%
    18:00 +28°C° 0 mm 2 mps 743 mmHg 72%
    19:00 +27°C° 0 mm 1 mps 743 mmHg 83%
    20:00 +26°C° 0 mm 1 mps 743 mmHg 88%
    21:00 +26°C° 0 mm 1 mps 743 mmHg 86%
    22:00 +25°C° 0 mm 1 mps 744 mmHg 87%
    23:00 +24°C° 0 mm 1 mps 744 mmHg 87%

    Tomorrow, 20 June, Wednesday

    Time Temperature Precipitation Wind Pressure Humidity
    00:00 +23°C° 0 mm 2 mps 744 mmHg 94%
    01:00 +21°C° 0 mm 2 mps 744 mmHg 99%
    02:00 +21°C° 0 mm 2 mps 745 mmHg 99%
    03:00 +20°C° 0 mm 2 mps 745 mmHg 100%
    04:00 +20°C° 0 mm 2 mps 745 mmHg 100%
    05:00 +20°C° 0 mm 2 mps 745 mmHg 100%
    06:00 +21°C° 0 mm 3 mps 745 mmHg 99%
    07:00 +21°C° 0 mm 2 mps 746 mmHg 97%
    08:00 +23°C° 0 mm 2 mps 746 mmHg 95%
    09:00 +24°C° 0 mm 2 mps 746 mmHg 90%
    10:00 +25°C° 0 mm 2 mps 747 mmHg 85%
    11:00 +25°C° 0 mm 2 mps 746 mmHg 81%
    12:00 +26°C° 0 mm 2 mps 747 mmHg 79%
    13:00 +26°C° 0 mm 2 mps 746 mmHg 79%
    14:00 +26°C° 0 mm 2 mps 746 mmHg 79%
    15:00 +27°C° 0 mm 2 mps 745 mmHg 76%
    16:00 +27°C° 0 mm 2 mps 745 mmHg 77%
    17:00 +27°C° 0 mm 1 mps 745 mmHg 75%
    18:00 +26°C° 0 mm 1 mps 745 mmHg 76%
    19:00 +26°C° 0 mm 1 mps 745 mmHg 86%
    20:00 +25°C° 0 mm 1 mps 745 mmHg 91%
    21:00 +24°C° 0 mm 1 mps 745 mmHg 90%
    22:00 +24°C° 0 mm 1 mps 745 mmHg 92%
    23:00 +23°C° 0 mm 1 mps 745 mmHg 92%

    Day after tomorrow, 21 June, Thursday

    Time Temperature Precipitation Wind Pressure Humidity
    00:00 +23°C° 0 mm 1 mps 745 mmHg 94%
    01:00 +22°C° 0 mm 1 mps 745 mmHg 97%
    02:00 +22°C° 0 mm 1 mps 745 mmHg 98%
    03:00 +21°C° 0 mm 1 mps 744 mmHg 100%
    04:00 +21°C° 0 mm 1 mps 744 mmHg 100%
    05:00 +20°C° 0 mm 1 mps 744 mmHg 100%
    06:00 +21°C° 0 mm 1 mps 744 mmHg 100%
    07:00 +20°C° 0 mm 2 mps 744 mmHg 99%
    08:00 +21°C° 0 mm 3 mps 744 mmHg 98%
    09:00 +24°C° 0 mm 3 mps 744 mmHg 95%
    10:00 +25°C° 0 mm 3 mps 744 mmHg 94%
    11:00 +26°C° 0 mm 3 mps 743 mmHg 90%
    12:00 +26°C° 0 mm 4 mps 742 mmHg 87%
    13:00 +27°C° 0 mm 4 mps 742 mmHg 84%
    14:00 +27°C° 0 mm 4 mps 741 mmHg 83%
    15:00 +27°C° 0 mm 4 mps 741 mmHg 82%
    16:00 +27°C° 0 mm 4 mps 740 mmHg 84%
    17:00 +27°C° 0 mm 5 mps 739 mmHg 85%
    18:00 +27°C° 0 mm 5 mps 739 mmHg 87%
    19:00 +26°C° 0 mm 5 mps 739 mmHg 90%
    20:00 +25°C° 0 mm 4 mps 738 mmHg 93%
    21:00 +23°C° 0 mm 4 mps 738 mmHg 95%
    22:00 +22°C° 0 mm 4 mps 738 mmHg 95%
    23:00 +22°C° 0 mm 4 mps 737 mmHg 97%

    22 June, Friday

    Time Temperature Precipitation Wind Pressure Humidity
    00:00 +21°C° 0 mm 4 mps 737 mmHg 97%
    01:00 +21°C° 0 mm 3 mps 736 mmHg 98%
    02:00 +20°C° 0 mm 2 mps 736 mmHg 97%
    03:00 +20°C° 0 mm 2 mps 736 mmHg 97%
    04:00 +21°C° 0 mm 1 mps 735 mmHg 97%
    05:00 +21°C° 0 mm 1 mps 736 mmHg 97%
    06:00 +21°C° 0 mm 1 mps 735 mmHg 98%
    07:00 +22°C° 0 mm 1 mps 736 mmHg 97%
    08:00 +23°C° 0 mm 2 mps 736 mmHg 95%
    09:00 +21°C° 1.2 mm 6 mps 736 mmHg 98%
    10:00 +21°C° 1.9 mm 6 mps 737 mmHg 96%
    11:00 +21°C° 0 mm 7 mps 736 mmHg 94%
    12:00 +20°C° 0 mm 6 mps 736 mmHg 95%
    13:00 +21°C° 0 mm 7 mps 736 mmHg 94%
    14:00 +17°C° 0 mm 7 mps 736 mmHg 93%
    15:00 +18°C° 0 mm 7 mps 737 mmHg 92%
    16:00 +17°C° 0 mm 5 mps 737 mmHg 92%
    17:00 +18°C° 0 mm 4 mps 737 mmHg 92%
    18:00 +19°C° 0 mm 4 mps 737 mmHg 92%
    19:00 +19°C° 0 mm 4 mps 737 mmHg 88%
    20:00 +18°C° 0 mm 3 mps 737 mmHg 91%
    21:00 +16°C° 0 mm 6 mps 738 mmHg 92%
    22:00 +15°C° 0 mm 5 mps 738 mmHg 91%
    23:00 +15°C° 0 mm 4 mps 738 mmHg 91%

    23 June, Saturday

    Time Temperature Precipitation Wind Pressure Humidity
    00:00 +14°C° 0 mm 4 mps 738 mmHg 94%
    01:00 +14°C° 0 mm 4 mps 738 mmHg 93%
    02:00 +13°C° 0 mm 4 mps 739 mmHg 93%

    24 June, Sunday

    Time Temperature Precipitation Wind Pressure Humidity
    Show more